Погода в Карасуке

Погода в Карасуке : погода сейчас, прогноз погоды и архив. Всё, что Вы хотите узнать о погоде в Карасуке!

Хотите узнать прогноз погоды в Карасуке? Тогда Вам сюда: Погода в Карасуке

Поиск расширенной информации на нашем сайте:

Другие новости

Новости СМИ2

Главная страница сайта

Новости сайта

03.07.2017

Напоминаем, что на нашем специализированном сайте Метеоцентр.Азия вы можете получить высокодетализированные автоматические прогнозы погоды по пунктам России, СНГ и мира в авиационном формате (включающие направление и скорость ветра, видимость, явления погоды, количество и форму облачности, нижнюю и верхнюю границу облачности).

Рекомендуем: контейнер прямоугольный с крышкой по низкой цене

Погода в Карасуке - сегодня

Время (UTC), дата Ветер
(°,м/с) 
Видим.   Явления Облачность Т
(°С)
Тd
(°С)
f(%) Тe
(°С)
Pmin
(гПа)
dP
(гПа)
Po
(мм)
O2
(г/м3)
Тmin Tmax R s Состояние
почвы
03 20.07.17 250 (З) 20000 м    8/3 300 м кучево-дожд., средняя, верхняя 
[Cb calv|Ac trans|Ci sp]
+18.3 +14.8 80 +27  1010.6  0.7  748  279           
06 20.07.17 320 (СЗ) 20000 м    6/6 540 м кучево-дожд. 
[Cb calv]
+23 +12.9 53 +28  1010.6  0.2  748  276           
09 20.07.17 310 (СЗ) 20000 м    8/6 500 м кучево-дожд., верхняя 
[Cb calv|Ci sp]
+24.6 +10.9 42 +27  1009.8  -0.8  747  274           
12 20.07.17 330 (СЗ) 20000 м    6/6 600 м 
[Sc diur, vesp]
+24.6 +11.3 43 +28  1009.9  0.1  748  274    +25.4       
15 20.07.17 тихо ()   20000 м  {ливн. осадки}  3/3 600 м кучево-дожд. 
[Cb calv]
+21 +13.4 62 +27  1010.8  0.8  748  277           
18 20.07.17 тихо ()   20000 м  {ливн. осадки}  ясно 
+16.9 +13.3 79 +23  1011.3  0.3  748  281           
21 20.07.17 070 (В) 20000 м    ясно 
+14.5 +12.7 89 +21  1011.3  -0.2  748  284           
00 21.07.17 130 (ЮВ) 20000 м    3/0 верхняя 
[Ci sp]
+16.3 +14.5 89 +26  1012.1  0.9  749  282  +12.9    0.0    влажная 
03 21.07.17 120 (ЮВ) 20000 м    8/0 верхняя 
[Ci sp]
+22.2 +13 56 +28  1012.3  0.5  749  277           
06 21.07.17 090 (В) 20000 м    8/4 600 м верхняя 
[Sc diur, vesp|Ci]
+24.2 +12.3 47 +29  1011.9  -0.3  749  275           
09 21.07.17 270 (З) 20000 м    8/6 600 м кучево-дожд., верхняя 
[Cb cap|Ci fib]
+25.6 +11 40 +28  1010.9  -1  748  274           
12 21.07.17 100 (В) 20000 м  гроза без осадков  8/8 360 м кучево-дожд. 
[Cb cap]
+22.2 +13.1 56 +28  1011.3  0.3  749  276    +26.1       
15 21.07.17 тихо ()   20000 м  {гроза, ливн. осадки}  8/4 300 м кучево-дожд., средняя, верхняя 
[Cb calv|Ac As|Ci sp]
+20.4 +15.5 73 +30  1011.6  0.2  749  277           
18 21.07.17 тихо ()   20000 м  {гроза, ливн. осадки}  10/5 300 м кучево-дожд., средняя 
[Cb calv|Ac As]
+16.8 +14.9 89 +25  1011.4  -0.3  748  281           
21 21.07.17 тихо ()   20000 м    10/3 300 м кучево-дожд., средняя, верхняя 
[Cb calv|Ac As|Ci sp]
+15.5 +14.2 92 +23  1011.1  -0.4  748  282           
00 22.07.17 040 (СВ) 20000 м    8/0 средняя, верхняя 
[Ac As|Ci sp]
+15.8 +14.7 93 +25  1011.4  0.4  748  282  +14.8    0.3    влажная 
03 22.07.17 030 (СВ) 20000 м    10/3 300 м кучево-дожд., средняя 
[Cb calv|Ac lent]
+22 +14.9 64 +31  1011.9  0.7  749  276           
06 22.07.17 040 (СВ) 20000 м  в посл. час гроза  8/5 300 м кучево-дожд., верхняя 
[Cb cap|Ci ing]
+25.2 +10.8 40 +27  1011.3  -0.5  749  274           
09 22.07.17 210 (ЮЗ) 20000 м  гроза без осадков{ливн. осадки}  10/10 600 м кучево-дожд. 
[Cb cap]
+17.8 +14.1 79 +26  1011.8  0.3  749  280           
12 22.07.17 260 (З) 20000 м  {гроза, ливн. осадки}  10/5 300 м кучево-дожд., средняя 
[Cb cap|Ac lent]
+21.5 +13.9 62 +28  1011.5  -0.2  749  277    +25.7     
15 22.07.17 250 (З) 20000 м    10/4 1000 м средняя, верхняя 
[Sc|Ac lent|Ci fib]
+20.3 +14.2 68 +28  1011.6  749  278           
18 22.07.17 тихо ()   20000 м    4/4 1000 м 
[Sc]
+16.7 +14.5 87 +25  1011.6  -0.1  749  281           
21 22.07.17 290 (З) 20000 м    3/0 средняя 
[Ac As]
+13.8 +12.5 92 +20  1011.1  -0.7  748  284           
00 23.07.17 320 (СЗ) 20000 м    3/0 средняя, верхняя 
[Ac As|Ci]
+15.2 +14.2 94 +24  1011.1  0.1  748  283  +13.6        влажная 
03 23.07.17 310 (СЗ) 20000 м    ясно 
+22.5 +14.3 60 +30  1011.2  0.4  748  276           
Время (UTC), дата Ветер
(°,м/с) 
Видим.   Явления Облачность Т
(°С)
Тd
(°С)
f(%) Тe
(°С)
Pmin
(гПа)
dP
(гПа)
Po
(мм)
O2
(г/м3)
Тmin Tmax R s Состояние
почвы

Для получения пояснительной информации подведите курсор к названию столбца.

ПОГОДА в Карасуке - архив

Всё, что Вы хотите узнать о погоде в Карасуке - удобно и подробно!

Выберите нужную дату (начиная с 1 января 2015* года) и нажмите кнопку "Найти".
Будут отображены архивные сводки погоды по пункту Карасук, начиная с указанной даты.


Отображать данные в формате CSV (для использования в таблицах Excel)


Внимание! Наш архив погоды предназначен исключительно для личного некоммерческого использования в познавательных целях. Если Вам необходимы официальные справки о состоянии погоды (для производственных, юридических, коммерческих и т.п. целей), обращайтесь в органы Росгидромета.

*Примечание: данная дата относится к архиву по метеостанциям СССР (Россия, СНГ, Балтия).
Архив по метеостанциям Зарубежной Европы и Азии (кроме Китая) хранится 10 дней, по другим регионам земного шара (Китай, Африка, Америка, Австралия, Океания) - 1 день.

Карасук - район местоположения метеостанции


Название, широта, долгота, высота метеостанции:
Карасук 53.7°ш. 78.1°д. 115 м над ур. моря [Российская Федерация]

Дополнительная информация

В oтличие oт бoльшинства пoгoдных сайтoв мы публикуем пoдрoбную метеoинфoрмацию в детальнoм прoфессиoнальнoм фoрмате.

Характеристики температуры и влажнoсти вoздуха измеряются на высoте 2 м в тени вдали oт зданий и деревьев.
Скoрoсть ветра измеряется на высoте 10 м (на урoвне рoста челoвека скoрoсть ветра ниже в 1.5-2 раза). Если метеoстанция нахoдится в гoрoде или в лесу, тo скoрoсть ветра занижена на 2-4 м/с пo сравнению с oткрытым местoм. Скoрoсть ветра над акватoриями крупных рек и oзёр, а также на вершинах хoлмoв на 2-5 м/с выше, чем в oбычных услoвиях.
Атмoсфернoе давление в разных тoчках местнoсти мoжет значительнo oтличаться oт давления на метеoстанции, в зависимoсти oт услoвий рельефа (при пoдъёме на 10 м давление пoнижается примернo на 1 мм рт.ст.).